Weather History for McCook, NE

Change the Weather History Date:

Wednesday, April 10, 2013

  Actual Average Record
Temperature  
Mean Temperature 24 °F 47 °F  
Max Temperature 28 °F 63 °F 91 °F (1930)
Min Temperature 20 °F 32 °F 16 °F (1973)
Degree Days  
Heating Degree Days 42    
Moisture  
Dew Point 18 °F    
Average Humidity 77    
Maximum Humidity 86    
Minimum Humidity 69    
Precipitation  
Precipitation T in 0.07 in 0.77 in (2008)
Month to date precipitation 0.75 0.58  
Year to date precipitation 2.59 3.07  
Sea Level Pressure  
Sea Level Pressure 30.08 in    
Wind  
Wind Speed 22 mph (NNW)    
Max Wind Speed 29 mph    
Max Gust Speed 36 mph    
Visibility 8 miles    
Events Snow    
T = Trace of Precipitation, MM = Missing Value Source: NWS Daily Summary

Daily Weather History Graph

Daily Weather History Graph

Search for Another Location

Airport:

Trip Planner

Search our weather history database for the weather conditions in past years. The results will help you decide how hot, cold, wet, or windy it might be!

Date:

Astronomy

Apr. 10, 2013 Rise Set
Actual Time 7:11 AM CDT 8:16 PM CDT
Civil Twilight 6:43 AM CDT 8:44 PM CDT
Nautical Twilight 6:10 AM CDT 9:17 PM CDT
Astronomical Twilight 5:35 AM CDT 9:52 PM CDT
Moon 7:08 AM CDT (4/10) 8:54 PM CDT (4/10)
Length of Visible Light 14h 00m
Length of Day
13h 04m
New Moon, 0% of the Moon is Illuminated
Apr 10
New Moon
Apr 18
First Quarter
Apr 25
Full
May 2
Last Quarter
May 9
New

Hourly Weather History & Observations

Time (CDT) Temp. Windchill Dew Point Humidity Pressure Visibility Wind Dir Wind Speed Gust Speed Precip Events Conditions
12:05 AM 19.4 °F 0.8 °F 15.8 °F 86% 30.10 in - NNW 28.8 mph 34.5 mph N/A   Unknown
12:38 AM 19.4 °F 2.5 °F 14.0 °F 80% 30.11 in 10.0 mi NNW 23.0 mph 31.1 mph N/A   Overcast
12:53 AM 19.9 °F 3.2 °F 14.0 °F 78% 30.20 in 10.0 mi NNW 23.0 mph 27.6 mph N/A   Unknown
1:23 AM 21.2 °F 4.9 °F 14.0 °F 74% 30.11 in 10.0 mi NNW 23.0 mph 35.7 mph N/A   Overcast
1:53 AM 21.0 °F 4.6 °F 15.1 °F 78% 30.22 in 10.0 mi NNW 23.0 mph 31.1 mph N/A   Overcast
2:53 AM 19.9 °F 5.2 °F 15.1 °F 81% 30.18 in 7.0 mi NNW 17.3 mph - N/A   Overcast
3:53 AM 21.0 °F 6.2 °F 15.1 °F 78% 30.19 in 10.0 mi NNW 18.4 mph 25.3 mph N/A   Overcast
4:53 AM 21.0 °F 5.4 °F 15.1 °F 78% 30.16 in 10.0 mi NNW 20.7 mph - N/A   Overcast
5:53 AM 21.9 °F 6.5 °F 15.1 °F 75% 30.17 in 10.0 mi NNW 20.7 mph 26.5 mph N/A   Overcast
6:53 AM 21.9 °F 6.5 °F 15.1 °F 75% 30.19 in 10.0 mi NNW 20.7 mph - N/A   Overcast
7:53 AM 21.9 °F 5.5 °F 14.0 °F 72% 30.17 in 10.0 mi NNW 24.2 mph - N/A   Overcast
8:53 AM 21.9 °F 4.5 °F 15.1 °F 75% 30.18 in 10.0 mi NNW 27.6 mph 34.5 mph N/A   Overcast
9:53 AM 23.0 °F 6.3 °F 16.0 °F 74% 30.17 in 10.0 mi NNW 26.5 mph 31.1 mph N/A   Overcast
10:53 AM 24.1 °F 9.4 °F 17.1 °F 75% 30.19 in 10.0 mi NNW 20.7 mph - N/A   Overcast
11:53 AM 24.8 °F 10.0 °F 17.6 °F 74% 30.06 in 8.0 mi NNW 21.9 mph 28.8 mph N/A   Overcast
12:53 PM 26.1 °F 12.7 °F 18.0 °F 71% 30.16 in 10.0 mi NNW 18.4 mph - N/A   Unknown
1:41 PM 26.6 °F 12.0 °F 17.6 °F 69% 30.03 in 10.0 mi North 23.0 mph - N/A   Overcast
1:53 PM 27.0 °F 12.2 °F 19.0 °F 72% 30.12 in 10.0 mi NNW 24.2 mph - N/A   Overcast
2:53 PM 26.1 °F 13.1 °F 19.0 °F 75% 30.14 in 10.0 mi North 17.3 mph - N/A   Overcast
3:27 PM 26.6 °F - 19.4 °F 74% 30.01 in - North - - N/A   Unknown
3:53 PM 27.0 °F 13.5 °F 19.9 °F 75% 30.09 in 10.0 mi NNW 19.6 mph - N/A   Unknown
4:35 PM 28.4 °F 15.1 °F 19.4 °F 69% 29.98 in 10.0 mi NNW 20.7 mph - N/A   Overcast
4:53 PM 28.0 °F 15.7 °F 19.9 °F 72% 30.07 in 10.0 mi NNW 17.3 mph - N/A   Overcast
5:53 PM 28.0 °F 14.6 °F 21.0 °F 75% 30.04 in 10.0 mi NW 20.7 mph - N/A   Overcast
6:53 PM 28.0 °F 13.9 °F 19.9 °F 72% 30.05 in 10.0 mi NNW 23.0 mph - N/A   Overcast
7:31 PM 26.6 °F 13.1 °F 21.2 °F 80% 29.95 in 2.5 mi NNW 19.6 mph - 0.00 in Snow Light Snow
7:40 PM 26.6 °F 13.4 °F 21.2 °F 80% 29.95 in 1.0 mi NNW 18.4 mph - 0.00 in Snow Light Snow
7:53 PM 27.0 °F 15.6 °F 21.0 °F 78% 30.04 in 2.0 mi NNW 13.8 mph - 0.00 in Snow Light Snow
8:08 PM 26.6 °F 14.7 °F 21.2 °F 80% 29.95 in 2.5 mi NNW 15.0 mph - 0.00 in   Haze
8:16 PM 26.6 °F 14.3 °F 21.2 °F 80% 29.95 in 6.0 mi NNW 16.1 mph - 0.00 in   Haze
8:38 PM 26.6 °F 12.7 °F 19.4 °F 74% 29.96 in 10.0 mi NNW 20.7 mph - 0.00 in   Overcast
8:53 PM 27.0 °F 14.7 °F 19.9 °F 75% 30.05 in 10.0 mi NNW 16.1 mph 25.3 mph 0.00 in   Overcast
9:53 PM 27.0 °F 14.3 °F 19.9 °F 75% 30.06 in 10.0 mi NNW 17.3 mph - N/A   Overcast
10:04 PM 26.6 °F 12.4 °F 21.2 °F 80% 29.97 in 1.5 mi NNW 21.9 mph - 0.00 in Snow Light Snow
10:08 PM 26.6 °F 12.7 °F 21.2 °F 80% 29.98 in 0.8 mi NNW 20.7 mph - 0.00 in Snow Light Snow
10:23 PM 24.8 °F 11.9 °F 21.2 °F 86% 29.98 in 2.0 mi NNW 16.1 mph - 0.00 in Snow Light Snow
10:31 PM 24.8 °F 12.4 °F 21.2 °F 86% 29.98 in 4.0 mi NNW 15.0 mph - 0.00 in Snow Light Snow
10:53 PM 26.1 °F 15.0 °F 21.0 °F 81% 30.07 in 10.0 mi NW 12.7 mph - 0.00 in   Mostly Cloudy
11:46 PM 24.8 °F 12.4 °F 19.4 °F 80% 29.97 in 10.0 mi NW 15.0 mph - N/A   Overcast
11:53 PM 25.0 °F 14.8 °F 19.9 °F 81% 30.06 in 10.0 mi NW 10.4 mph - N/A   Overcast